MUOS-4

Last updated on Sun Apr 12 2026 00:02:53 GMT+0000 (Coordinated Universal Time)

1 40887U 15044A 26101.46434840 -.00000088 00000+0 00000+0 0 9999 2 40887 4.2049 41.7831 0059874 0.7927 39.2106 1.00272140 38896
UTC large
Height (km)
Speed (km/s)
/
Latitude / Longitude
Inclination (degrees)
Orbital Period (minutes)
Azimuth
Elevation
Range (km)
Doppler Factor

Next 0 passes for location: London (51.5072 / 0.1276)

Sorry there are no passes over London.
MUOS-4